GFSGBSN_sfc_thetae_132.txt.gz
Theta_e
326 327 325 324 321 320 318 319 319 320 320 320 320 320 319 318 317 318 318 318 317 317 317 317 319 320 309 299 302 317 343 337 328 307 303 302 308 308 306 307 324 321 327 328 332 329 330
325 326 324 321 321 320 318 318 319 319 319 319 319 319 319 318 317 318 318 318 317 317 317 317 319 320 303 295 311 326 330 324 312 303 299 301 308 309 308 320 316 329 328 326 329 329 329
324 322 322 320 320 319 319 318 319 319 319 319 319 319 319 317 318 317 317 317 317 316 317 317 319 317 302 299 320 319 316 313 308 302 299 300 303 305 307 319 328 327 321 324 324 327 326
322 321 320 319 319 319 319 318 319 318 318 318 318 318 318 317 317 316 315 315 315 316 317 319 320 309 299 309 313 314 315 313 310 302 301 301 305 303 305 325 326 321 319 311 321 326 327
321 320 319 319 320 320 319 318 318 318 318 318 318 318 316 315 314 314 313 314 316 318 319 320 307 303 302 320 311 313 314 310 305 301 299 308 304 299 312 314 308 311 306 312 316 326 323
319 319 320 319 319 319 319 318 318 318 318 318 318 317 315 314 313 312 312 316 319 318 319 320 316 301 305 306 309 309 311 307 302 300 301 299 299 297 296 302 292 301 306 313 313 320 322
318 318 319 318 318 318 319 318 317 317 317 318 317 317 316 315 313 312 308 305 302 302 308 304 304 306 309 312 310 307 310 307 303 300 295 298 296 293 295 299 303 309 309 311 317 321 318
318 317 318 318 317 318 318 318 317 317 317 317 317 316 316 315 314 313 305 301 302 306 300 308 311 311 313 311 305 306 310 303 300 295 297 296 293 299 301 301 300 299 308 310 316 319 317
318 317 316 318 317 318 318 318 318 317 317 316 316 316 315 313 312 308 304 305 308 307 298 304 309 309 307 310 303 302 306 302 298 295 295 294 298 304 302 301 305 301 307 311 310 315 315
316 315 317 317 317 316 317 317 317 317 316 316 316 315 313 311 305 306 304 309 309 307 294 299 301 306 305 304 300 309 304 301 298 295 295 294 299 300 298 298 306 299 315 313 312 307 302
316 316 315 315 316 315 315 316 317 317 316 316 315 315 312 310 302 304 306 308 307 304 285 303 301 308 302 300 300 303 305 302 295 296 296 295 296 296 295 297 303 302 316 313 313 310 308
316 315 315 315 316 315 314 315 316 316 316 315 315 313 311 306 302 308 310 307 306 292 286 297 302 299 299 299 301 303 301 303 302 297 296 296 300 298 299 312 308 319 314 312 310 308 299
316 315 315 316 317 316 314 314 315 315 315 314 312 310 309 309 303 308 307 305 292 285 296 295 293 296 296 296 299 300 298 294 293 290 289 295 296 311 316 311 314 308 300 293 292 296 297
317 316 316 315 315 316 314 314 315 315 314 313 309 308 307 309 307 308 306 296 286 295 292 296 296 299 296 297 296 298 295 294 295 293 289 288 288 309 311 310 307 303 297 292 289 292 297
317 317 315 315 315 314 315 314 314 314 313 311 308 302 303 306 309 306 302 291 289 291 295 295 295 295 296 301 299 298 295 296 297 294 292 289 291 299 302 312 311 304 299 304 301 303 299
315 315 315 316 315 315 315 315 315 314 313 310 303 304 303 310 310 305 298 293 295 301 296 296 291 295 292 297 298 296 297 301 300 301 297 294 291 297 301 307 309 305 306 299 300 294 293
315 315 316 317 316 315 315 316 315 313 311 309 305 300 305 309 307 302 293 293 299 303 299 296 293 292 292 296 296 295 296 301 303 301 300 295 293 295 296 294 294 295 295 295 300 299 294
316 316 317 317 316 316 315 315 314 312 310 304 297 297 306 306 301 292 294 298 302 301 298 297 297 296 294 298 295 294 295 299 306 301 296 296 291 289 294 299 300 295 293 292 291 291 297
316 316 316 315 316 317 317 314 313 311 310 301 296 297 307 305 293 292 293 297 301 297 294 296 295 297 299 297 295 299 301 306 306 305 299 298 290 287 291 295 299 300 305 296 290 292 293
316 316 315 315 316 317 316 315 313 312 310 301 298 295 300 300 296 295 294 297 295 299 297 297 297 298 298 298 298 296 296 304 306 306 314 304 289 289 287 290 296 299 304 305 292 289 290
315 315 314 315 316 316 316 315 314 312 310 300 298 295 299 297 299 298 296 295 296 294 297 298 295 298 298 294 295 293 296 299 303 307 302 298 292 292 294 296 304 303 304 308 303 302 293
315 314 314 314 315 316 316 316 315 312 309 305 298 303 304 301 301 299 295 297 295 296 296 294 294 297 299 296 297 294 295 295 296 299 296 298 294 293 296 302 304 301 304 307 308 308 309
314 314 313 314 315 316 316 316 315 313 306 296 298 303 305 301 300 299 300 303 304 299 298 300 298 299 296 299 301 299 298 296 295 295 295 295 293 292 289 297 299 294 300 303 308 309 308
314 314 313 313 314 315 316 316 316 314 309 299 298 299 302 300 302 303 308 308 305 299 298 298 297 295 298 301 301 299 299 298 300 297 296 294 293 291 289 292 286 295 306 308 309 311 310
314 314 314 314 313 314 316 317 317 316 314 309 300 300 302 301 305 305 307 306 303 299 298 299 299 299 299 297 292 290 290 292 294 297 296 295 294 290 288 288 293 300 304 304 306 306 314
314 314 314 314 313 313 315 317 317 316 314 304 300 300 301 301 301 308 305 306 299 296 297 300 299 297 300 296 292 285 285 288 290 294 294 296 294 292 288 286 286 297 306 311 310 298 313
314 313 313 313 313 313 312 316 316 316 315 312 304 301 299 299 305 306 300 305 305 297 295 297 299 297 296 293 291 289 288 294 288 287 288 290 290 290 289 288 293 301 307 310 296 298 314
313 313 313 313 312 312 312 314 316 315 316 311 304 303 299 299 302 310 312 306 306 299 296 298 300 299 295 292 291 291 290 293 290 291 291 290 288 288 290 287 288 307 306 300 304 313 314
313 313 313 312 312 312 312 312 315 315 315 312 299 303 304 296 298 309 313 315 315 311 303 298 300 298 298 294 293 293 293 292 290 288 295 290 293 292 294 293 302 306 306 310 311 313 312

GFSGBSN_sfc_thetae_138.txt.gz
Theta_e
322 321 321 321 321 320 319 319 320 320 320 320 320 320 319 318 318 319 319 319 317 317 318 318 320 320 320 314 314 330 341 337 325 317 315 317 320 322 321 320 326 322 329 332 333 331 331
321 321 321 320 320 320 319 319 320 320 319 320 319 319 318 317 317 318 318 317 317 317 317 318 320 321 316 310 326 332 329 321 317 316 314 319 319 323 320 324 327 331 331 332 332 331 328
320 320 321 320 320 319 319 319 319 319 319 319 319 319 317 317 316 316 316 315 315 316 317 319 320 322 313 316 329 327 322 317 316 315 312 316 321 321 319 328 334 333 326 330 329 331 328
320 320 320 319 319 319 319 319 319 319 318 318 318 318 318 318 317 316 315 314 315 316 317 319 322 322 313 319 325 322 324 321 318 317 315 316 317 320 325 335 330 325 326 320 325 329 329
318 319 320 318 318 318 319 319 318 318 318 318 318 318 318 317 316 316 314 315 319 318 319 322 324 319 313 321 318 322 323 317 317 317 316 313 315 318 329 325 320 322 316 317 320 329 325
318 318 318 319 317 317 318 318 318 318 318 318 318 318 317 316 315 314 314 316 320 322 324 325 323 316 317 314 318 321 323 315 310 311 310 314 316 315 323 319 308 313 314 318 319 322 324
317 317 317 317 317 316 316 316 317 318 318 318 318 317 317 315 314 313 315 321 321 319 322 315 314 313 315 320 318 318 318 312 311 310 308 313 310 308 315 316 317 318 315 315 321 325 319
317 316 316 316 316 316 316 315 315 317 317 317 317 317 316 313 313 313 318 318 316 317 312 317 317 317 319 321 312 316 321 311 308 305 309 310 307 312 314 314 313 316 313 316 318 320 320
316 316 316 317 316 316 316 315 315 315 317 317 316 316 314 312 313 315 319 317 321 320 314 314 317 316 316 319 312 313 317 312 308 306 307 306 310 312 311 310 309 311 310 314 313 319 319
316 317 317 317 316 316 316 315 315 316 316 316 315 314 313 311 313 320 319 322 322 321 309 308 312 315 316 315 309 316 318 313 309 306 307 308 311 310 310 309 311 308 312 315 314 314 307
318 318 317 317 316 316 315 315 315 316 316 316 314 313 311 310 319 318 318 322 324 319 297 308 311 320 316 311 312 311 316 313 306 307 308 305 307 306 306 309 311 310 316 316 315 315 312
318 318 317 317 316 315 315 315 316 316 316 314 313 311 311 315 320 320 323 321 320 306 294 304 310 309 310 311 310 312 312 314 312 307 308 307 310 309 308 311 310 317 316 316 317 314 305
317 317 316 316 317 315 315 315 315 315 315 313 311 309 311 319 318 323 322 319 306 300 306 303 305 308 309 308 308 309 307 306 306 302 303 305 306 310 314 310 311 316 313 305 303 303 303
316 316 317 317 316 315 315 315 315 315 314 312 309 308 313 321 324 322 321 313 299 301 303 307 307 307 305 308 308 308 306 305 308 307 305 301 298 309 316 312 309 310 310 302 296 299 303
317 317 317 317 317 317 316 315 314 314 313 311 308 321 322 323 323 321 316 304 304 303 306 305 307 305 305 308 308 307 307 306 309 311 305 303 301 310 315 316 316 311 308 312 304 308 304
318 317 317 316 316 316 316 315 314 314 313 310 319 321 321 323 324 321 313 301 305 308 307 308 303 306 303 305 306 306 307 310 309 311 313 308 302 308 310 316 317 316 317 306 306 299 297
317 317 316 316 316 316 316 315 314 313 312 310 320 314 321 324 323 317 307 306 307 311 310 305 305 305 306 305 307 306 306 310 312 311 313 311 307 306 310 310 309 311 311 312 310 306 300
317 316 316 316 315 316 315 315 314 312 310 311 315 308 322 323 313 316 309 309 305 309 310 308 308 306 306 307 305 305 304 308 313 312 307 311 308 303 305 311 313 313 311 311 303 303 306
317 316 315 316 316 316 316 315 313 311 310 316 310 317 323 320 307 309 311 309 309 308 308 307 306 308 309 306 303 306 307 312 313 311 310 312 306 300 302 307 312 310 312 313 311 309 304
317 316 315 315 315 316 316 314 313 311 310 314 311 308 316 317 316 311 309 308 307 310 309 308 307 310 308 306 308 305 306 310 313 312 313 313 307 304 300 302 307 306 310 313 310 304 304
316 316 314 314 316 316 315 315 313 312 310 315 312 310 313 308 309 311 312 310 306 305 308 310 307 307 306 304 305 304 306 307 310 312 312 310 303 306 306 307 307 307 310 310 310 309 306
316 315 314 314 315 315 316 315 314 313 310 318 311 313 319 316 314 313 306 309 307 307 308 306 306 307 308 306 307 304 306 307 305 311 309 310 304 305 303 306 307 305 309 311 312 313 313
316 315 315 314 314 315 315 316 315 313 312 313 314 317 315 309 314 312 310 309 309 309 308 310 309 308 307 308 311 313 313 310 311 308 307 307 304 303 298 305 305 303 307 309 311 315 315
316 315 315 315 315 315 314 316 316 314 312 317 313 311 309 304 311 312 312 312 311 312 308 308 310 309 311 318 316 313 312 311 310 310 310 306 306 305 300 303 294 306 315 315 313 315 319
315 315 315 315 314 314 314 314 317 315 314 318 319 310 310 305 308 312 314 314 314 314 311 308 310 314 318 313 307 303 303 304 306 309 310 313 309 302 299 298 302 305 309 311 311 310 319
315 315 315 314 314 314 313 313 315 316 314 317 318 316 310 306 306 311 313 315 312 310 309 308 310 317 315 310 306 300 299 300 299 304 310 309 311 305 302 297 294 307 313 317 317 306 318
315 315 314 314 314 313 313 313 314 316 314 315 319 318 312 306 310 314 309 312 317 311 309 309 309 309 313 307 303 303 301 305 298 299 302 304 305 301 301 299 303 311 314 318 302 308 322
315 314 314 313 313 313 313 313 313 314 315 315 318 320 313 309 311 313 315 316 316 314 308 312 308 309 306 305 304 305 303 306 303 305 303 302 301 301 303 299 296 315 314 309 317 323 324
313 313 313 313 313 312 312 312 313 313 314 314 314 317 317 309 310 314 315 316 318 319 316 314 312 312 311 308 310 310 306 308 305 299 311 302 306 305 304 304 315 318 317 321 322 323 325

GFSGBSN_sfc_thetae_141.txt.gz
Theta_e
322 322 322 320 321 320 320 321 321 321 320 321 320 320 319 318 318 319 319 319 318 318 319 319 320 322 323 319 318 335 342 335 323 322 318 319 319 325 322 323 327 328 331 333 333 331 331
321 321 321 320 320 320 320 320 320 320 320 320 320 320 319 318 319 318 317 317 316 317 318 319 321 321 324 313 328 332 329 321 320 319 318 320 321 326 324 324 326 330 331 331 333 332 329
321 321 320 320 320 320 320 320 319 319 319 319 319 319 319 319 318 318 318 316 316 317 317 319 321 325 321 319 328 325 323 320 318 318 316 321 325 323 324 326 332 332 325 330 329 331 327
319 320 320 319 319 319 319 319 319 319 319 319 319 319 319 319 318 317 317 316 317 318 318 320 322 328 316 326 328 325 325 319 318 319 319 319 323 322 323 333 328 325 325 321 329 330 329
318 319 320 319 318 317 318 318 319 319 319 319 319 318 318 318 317 316 315 316 320 321 320 323 327 326 314 320 319 324 325 319 318 317 319 318 320 320 324 322 320 320 314 317 323 331 325
318 318 318 318 317 317 317 316 317 317 318 319 319 318 318 317 315 314 314 315 320 321 324 329 327 320 320 316 319 321 324 316 315 314 313 314 317 315 321 318 308 308 315 319 320 324 323
317 317 317 317 317 317 317 316 316 316 317 318 318 318 317 316 315 314 316 324 324 324 326 315 315 314 316 319 321 319 321 314 313 311 307 313 310 308 314 318 317 315 316 315 323 327 323
318 317 317 317 317 317 317 316 316 316 317 318 317 316 315 315 314 313 318 322 320 321 315 318 317 317 319 321 313 316 320 310 310 306 311 309 307 313 316 318 315 315 314 315 320 326 324
319 318 319 317 317 316 316 316 316 317 317 317 316 315 314 314 313 317 323 322 326 326 316 315 318 316 317 320 313 313 319 313 310 308 308 308 310 316 313 314 312 312 311 313 313 320 321
319 319 318 318 316 316 316 316 316 317 317 316 315 314 313 311 313 326 322 326 327 326 311 311 314 315 318 317 311 318 320 315 311 308 309 310 314 311 311 311 313 309 314 313 313 314 306
319 318 317 318 317 316 316 315 316 317 316 315 315 314 312 310 320 322 323 327 326 324 300 310 312 322 317 314 313 313 318 315 309 308 310 308 309 308 309 310 314 311 317 314 315 313 314
318 317 317 318 318 317 316 316 316 316 316 315 314 312 310 318 324 324 326 326 323 308 298 307 313 312 312 312 312 313 313 317 314 309 310 310 313 311 310 311 313 315 313 315 315 314 306
319 317 318 318 318 317 317 316 315 315 315 314 312 310 311 322 322 327 326 321 308 301 309 306 308 310 312 310 310 311 309 308 307 304 305 307 307 310 311 309 313 311 311 304 303 304 304
318 318 318 318 317 316 317 316 316 315 314 313 310 308 315 322 327 325 323 314 303 305 305 310 309 309 307 310 310 309 308 307 309 309 307 304 300 308 313 311 309 310 310 304 295 301 302
318 318 318 317 317 316 316 316 315 314 314 312 308 323 323 325 326 325 316 306 306 306 308 306 309 307 307 309 309 309 310 309 311 312 307 306 304 311 314 314 315 311 307 313 305 309 306
318 318 317 317 317 316 316 316 315 314 313 311 317 320 321 326 328 322 313 305 309 310 309 308 305 308 306 308 307 308 308 312 310 312 314 311 303 310 311 314 316 313 316 306 307 300 299
318 318 317 317 317 316 317 316 315 314 312 311 319 315 325 328 327 318 309 310 310 312 311 307 307 307 308 307 308 307 309 312 312 313 314 312 309 307 311 309 308 310 308 311 310 308 300
318 317 317 317 317 316 317 316 314 312 310 311 315 309 326 326 312 316 311 313 307 311 312 310 309 309 307 309 308 307 306 310 315 312 308 314 309 305 307 313 316 312 307 312 305 306 307
318 317 317 316 316 316 317 316 314 311 311 317 312 314 326 323 307 310 315 312 312 310 310 309 308 309 310 307 305 308 308 314 313 311 312 314 308 302 303 309 313 309 310 311 310 307 305
318 317 317 316 316 316 316 315 313 312 311 315 313 307 317 318 314 312 312 311 309 313 311 311 309 311 309 307 310 307 307 312 312 312 320 313 306 305 300 304 310 307 310 311 310 301 305
318 317 317 315 315 316 316 316 314 312 312 316 314 309 317 310 310 311 315 312 309 308 311 313 309 309 308 306 306 306 308 309 311 313 311 310 304 306 307 308 308 308 305 307 310 310 304
319 317 317 315 315 315 316 316 315 313 311 318 313 312 319 315 317 312 307 310 310 311 310 308 308 309 309 307 308 306 308 309 308 312 311 311 305 306 304 306 305 305 308 309 310 311 312
318 317 316 316 315 315 315 316 316 313 312 319 319 317 313 309 313 312 311 311 311 313 313 312 311 310 309 310 313 313 313 313 313 309 309 307 306 303 300 305 305 302 306 307 309 313 312
318 317 316 316 316 315 315 315 316 315 313 320 322 316 309 305 310 312 312 313 311 311 311 312 313 311 314 317 315 314 313 311 311 311 311 307 306 306 300 303 295 306 315 313 312 312 315
317 316 316 316 316 315 315 314 315 317 315 318 322 317 313 308 310 310 313 314 316 316 313 313 313 315 319 314 309 306 306 306 307 309 310 311 308 303 300 300 302 305 309 309 308 309 315
317 316 316 316 315 315 314 314 315 317 315 317 322 322 315 309 309 313 311 315 313 313 313 314 316 319 317 311 308 301 299 302 302 306 311 309 311 305 303 297 296 307 313 318 315 305 317
316 316 316 315 315 314 314 314 314 315 315 316 320 326 316 310 314 314 311 313 318 316 311 314 313 313 316 308 303 303 302 306 299 300 304 306 307 303 303 300 303 313 314 317 302 307 322
316 316 315 315 314 314 314 313 313 314 315 315 322 327 317 313 315 317 316 313 318 319 313 313 312 312 310 307 306 305 306 307 305 306 305 304 302 302 303 300 297 316 315 308 318 322 324
315 315 314 314 313 313 313 313 313 313 314 314 317 323 321 314 314 318 318 319 317 319 319 316 314 313 313 309 309 309 305 308 308 301 311 303 307 304 308 305 315 317 316 319 322 322 324

GFSGBSN_sfc_thetae_147.txt.gz
Theta_e
323 321 321 320 319 320 321 321 321 321 321 321 321 321 321 321 321 321 321 320 320 319 320 320 321 322 319 315 317 335 348 338 320 316 317 316 311 310 309 319 329 325 323 328 332 329 330
321 320 320 319 318 318 319 320 320 320 320 321 321 321 321 321 320 321 321 320 319 319 320 320 321 322 315 311 326 334 328 319 314 314 314 315 311 315 314 324 325 324 326 326 327 328 329
319 319 319 319 318 318 317 317 317 318 319 320 320 320 320 320 320 320 319 318 318 319 320 321 321 321 319 319 321 326 318 312 312 313 311 314 315 312 314 317 330 327 323 325 327 329 325
318 318 318 318 318 318 317 317 317 317 318 319 319 320 320 319 319 318 318 317 317 319 322 323 321 320 315 324 321 321 318 315 315 312 310 313 314 312 310 318 324 325 324 316 325 328 327
318 318 318 318 318 317 317 317 317 316 317 319 319 319 318 318 317 317 316 316 318 322 325 322 317 316 315 324 313 319 319 316 312 309 310 317 311 306 309 306 309 318 312 312 314 329 323
320 320 318 317 317 317 316 316 316 316 318 319 318 316 317 317 316 315 315 316 323 320 324 325 324 314 319 313 315 319 319 318 311 308 308 306 303 300 303 301 300 307 311 311 313 323 322
320 319 319 318 317 317 316 316 316 317 318 317 316 316 316 316 315 314 312 316 316 314 318 315 314 316 314 312 314 314 319 312 309 305 298 303 296 296 302 305 314 315 312 310 315 325 320
320 319 319 319 319 318 317 316 316 316 316 317 315 315 315 315 314 313 310 314 316 316 309 321 319 314 314 314 309 313 314 307 303 299 302 298 295 304 308 314 317 316 314 313 314 320 319
320 319 319 318 318 319 318 317 317 316 316 316 316 316 315 314 313 312 314 318 324 319 308 315 315 314 312 313 310 308 310 307 304 300 301 297 303 309 308 308 313 315 309 309 308 313 321
321 320 319 318 318 318 318 318 318 317 317 316 316 316 315 312 310 313 315 324 322 319 303 310 309 312 314 314 307 316 315 311 306 302 304 302 310 310 307 307 306 302 318 315 312 313 305
320 320 320 319 318 317 317 317 317 317 316 316 316 315 313 311 307 309 318 321 321 316 293 311 309 318 313 307 308 309 316 310 304 306 302 301 306 306 304 307 309 304 316 315 314 308 307
320 320 320 319 319 318 317 317 317 316 316 316 315 314 312 312 311 313 318 318 317 300 295 305 311 309 307 308 309 311 309 309 311 307 304 305 309 306 305 310 309 311 307 309 306 303 295
321 320 320 319 318 317 317 316 316 316 315 314 313 311 310 314 310 315 315 315 300 296 310 304 305 308 307 304 306 307 305 302 299 293 295 302 303 305 308 302 306 303 296 290 291 296 295
321 320 319 319 318 317 317 317 316 315 314 313 310 309 311 313 313 314 316 306 296 306 307 308 306 306 304 307 305 306 304 300 304 301 298 297 297 302 306 301 298 300 296 290 289 292 297
322 321 320 319 318 317 316 316 315 315 314 312 309 315 313 315 315 316 308 299 300 308 308 306 305 303 302 307 305 305 303 303 305 304 296 298 299 307 307 308 304 300 298 305 298 299 298
322 321 320 319 318 317 316 316 315 314 313 311 310 312 310 321 319 311 304 299 305 310 311 306 299 305 303 305 303 301 303 307 307 309 304 301 296 306 308 309 308 304 306 296 298 292 292
323 322 320 319 318 317 317 316 315 314 312 311 312 308 316 319 317 309 301 304 307 312 312 306 302 302 303 308 306 304 307 309 310 309 306 305 300 301 306 300 300 300 299 300 301 298 294
323 322 321 319 318 317 317 316 315 312 311 314 312 304 318 320 306 307 303 307 306 310 312 307 306 304 303 305 305 303 306 308 312 308 302 305 299 295 300 308 311 306 301 299 294 295 300
323 323 322 320 318 318 317 316 314 312 312 309 308 309 318 318 302 303 306 307 310 309 311 307 304 307 306 303 301 305 309 312 312 309 303 303 299 291 296 300 307 302 305 301 303 301 298
323 323 322 321 319 318 317 316 314 312 312 311 309 305 310 315 313 308 305 304 306 313 312 310 307 308 306 302 303 303 307 311 311 310 319 308 296 292 289 295 300 300 305 305 302 295 298
323 323 323 322 319 318 317 316 315 312 312 310 311 307 312 304 308 310 309 307 304 305 312 310 309 307 305 299 303 303 306 307 310 316 306 298 292 296 299 302 301 301 301 301 298 300 297
321 322 322 322 319 318 317 317 315 313 311 311 307 310 312 309 309 308 307 305 305 307 312 306 306 307 307 302 304 305 306 305 303 306 305 303 295 298 298 303 301 299 302 301 299 300 303
320 321 322 321 320 318 318 317 316 313 312 314 316 318 313 307 307 305 305 308 307 308 311 313 310 307 306 308 309 307 306 304 302 302 303 303 300 297 293 300 300 294 299 302 304 307 306
319 320 321 321 319 318 317 317 316 315 314 312 314 313 310 304 306 306 308 309 308 311 308 311 315 311 311 314 312 308 305 303 305 303 304 300 298 297 292 295 289 298 310 311 308 309 310
318 319 320 320 319 317 317 316 316 316 315 312 314 313 311 304 308 308 308 308 311 312 313 312 313 315 315 312 304 300 300 301 305 306 301 302 301 294 291 291 297 302 308 307 304 306 315
318 319 319 319 317 317 316 316 315 316 315 312 312 316 313 306 304 310 307 308 306 308 311 314 317 315 315 307 303 298 295 301 301 304 303 302 304 298 294 291 289 302 310 312 309 300 315
318 318 319 318 317 317 317 316 315 315 315 312 310 314 314 307 310 310 305 306 312 310 308 314 314 315 313 305 300 298 297 307 298 299 297 298 298 296 295 293 298 310 312 313 297 302 317
317 318 317 317 316 317 316 315 315 315 315 312 310 314 316 310 310 312 312 308 309 310 306 315 312 312 309 302 301 301 300 304 301 304 300 299 297 297 298 296 293 314 312 303 309 313 312
317 317 317 316 316 316 315 314 314 314 314 314 307 318 320 314 310 316 314 315 314 313 310 315 314 312 313 307 305 306 303 304 303 297 307 298 301 298 299 301 309 313 310 314 314 312 311